Weather History for Cairo Airport, Egypt

Change the Weather History Date:

Friday, April 5, 2013

  Actual Average Record
Temperature  
Mean Temperature 67 °F -  
Max Temperature 75 °F 81 °F - ()
Min Temperature 59 °F 59 °F - ()
Cooling Degree Days 2    
Growing Degree Days 17 (Base 50)    
Moisture  
Dew Point 48 °F    
Average Humidity 52    
Maximum Humidity 72    
Minimum Humidity 28    
Precipitation  
Precipitation 0.00 in 0.00 in - ()
Sea Level Pressure  
Sea Level Pressure 30.03 in    
Wind  
Wind Speed 9 mph ()    
Max Wind Speed 13 mph    
Max Gust Speed -    
Visibility 6.1 miles    
Events      
T = Trace of Precipitation, MM = Missing Value Source: Averaged Metar Reports

Daily Weather History Graph

Daily Weather History Graph

Search for Another Location

Airport:

Trip Planner

Search our weather history database for the weather conditions in past years. The results will help you decide how hot, cold, wet, or windy it might be!

Date:

Astronomy

Apr. 05, 2013 Rise Set
Actual Time 5:38 AM EET 6:15 PM EET
Civil Twilight 5:14 AM EET 6:39 PM EET
Nautical Twilight 4:46 AM EET 7:08 PM EET
Astronomical Twilight 4:17 AM EET 7:37 PM EET
Moon 2:11 AM EET (4/5) 1:37 PM EET (4/5)
Length of Visible Light 13h 24m
Length of Day
12h 36m
Waning Crescent, 26% of the Moon is Illuminated
Apr 5
Waning Crescent
Apr 10
New
Apr 18
First Quarter
Apr 25
Full
May 2
Last Quarter

Hourly Weather History & Observations

Time (EET) Temp. Dew Point Humidity Pressure Visibility Wind Dir Wind Speed Gust Speed Precip Events Conditions
12:00 AM 60.8 °F 50.0 °F 68% 30.04 in - NW 11.5 mph - N/A   Clear
12:30 AM 60.8 °F 50.0 °F 68% 30.04 in - NW 11.5 mph - N/A   Clear
1:00 AM 60.8 °F 50.0 °F 68% 30.01 in - WNW 10.4 mph - N/A   Clear
1:30 AM 60.8 °F 50.0 °F 68% 30.01 in - WNW 10.4 mph - N/A   Clear
2:00 AM 60 °F 49 °F 57% 30.04 in 6 mi WNW 10.4 mph - -  
2:00 AM 60.8 °F 48.2 °F 63% 30.01 in - WNW 10.4 mph - N/A   Clear
2:30 AM 60.8 °F 48.2 °F 63% 30.01 in - WNW 10.4 mph - N/A   Clear
3:00 AM 60.8 °F 48.2 °F 63% 30.01 in - WNW 10.4 mph - N/A   Clear
3:30 AM 60.8 °F 48.2 °F 63% 30.01 in - WNW 10.4 mph - N/A   Clear
4:00 AM 60.8 °F 48.2 °F 63% 30.01 in - West 11.5 mph - N/A   Clear
4:30 AM 60.8 °F 48.2 °F 63% 30.01 in - West 11.5 mph - N/A   Clear
5:00 AM 59.0 °F 48.2 °F 67% 30.01 in - West 8.1 mph - N/A   Clear
5:30 AM 59.0 °F 50.0 °F 72% 30.04 in - WNW 6.9 mph - N/A   Clear
6:00 AM 59.0 °F 50.0 °F 72% 30.04 in - West 8.1 mph - N/A   Clear
6:30 AM 60.8 °F 50.0 °F 68% 30.04 in - West 6.9 mph - N/A   Clear
7:00 AM 60.8 °F 50.0 °F 68% 30.04 in - West 9.2 mph - N/A   Clear
7:30 AM 62.6 °F 50.0 °F 63% 30.04 in - WNW 9.2 mph - N/A   Clear
8:00 AM 62 °F 51 °F 58% 30.06 in 6 mi WNW 9.2 mph - -   Partly Cloudy
8:00 AM 62.6 °F 51.8 °F 68% 30.06 in 6.2 mi WNW 9.2 mph - N/A   Scattered Clouds
8:30 AM 62.6 °F 50.0 °F 63% 30.04 in 6.2 mi WNW 10.4 mph - N/A   Scattered Clouds
9:00 AM 64.4 °F 50.0 °F 59% 30.06 in 6.2 mi WNW 10.4 mph - N/A   Scattered Clouds
9:30 AM 64.4 °F 50.0 °F 59% 30.06 in 6.2 mi NW 8.1 mph - N/A   Scattered Clouds
10:00 AM 64.4 °F 50.0 °F 59% 30.06 in 6.2 mi NNW 8.1 mph - N/A   Scattered Clouds
10:30 AM 66.2 °F 50.0 °F 56% 30.06 in 6.2 mi NW 5.8 mph - N/A   Scattered Clouds
11:00 AM 68.0 °F 46.4 °F 46% 30.06 in 6.2 mi WNW 5.8 mph - N/A   Scattered Clouds
11:30 AM 69.8 °F 46.4 °F 43% 30.04 in 6.2 mi NW 8.1 mph - N/A   Partly Cloudy
12:00 PM 68.0 °F 50.0 °F 52% 30.06 in - WNW 5.8 mph - N/A   Clear
12:30 PM 71.6 °F 46.4 °F 41% 30.04 in - WNW 5.8 mph - N/A   Clear
1:00 PM 73.4 °F 44.6 °F 36% 30.01 in - WNW 5.8 mph - N/A   Clear
1:30 PM 73.4 °F 44.6 °F 36% 30.01 in - WNW 5.8 mph - N/A   Clear
2:00 PM 73 °F 47 °F 28% 30.01 in 6 mi WNW 10.4 mph - -  
2:00 PM 73.4 °F 46.4 °F 38% 30.01 in - WNW 10.4 mph - N/A   Clear
2:30 PM 73.4 °F 46.4 °F 38% 30.01 in - WNW 10.4 mph - N/A   Clear
3:00 PM 73.4 °F 46.4 °F 38% 29.98 in - WNW 10.4 mph - N/A   Clear
3:30 PM 75.2 °F 46.4 °F 36% 29.98 in - WNW 10.4 mph - N/A   Clear
4:00 PM 75.2 °F 46.4 °F 36% 29.98 in - NW 9.2 mph - N/A   Clear
4:30 PM 75.2 °F 46.4 °F 36% 29.98 in - NW 9.2 mph - N/A   Clear
5:00 PM 75.2 °F 46.4 °F 36% 29.98 in - NW 9.2 mph - N/A   Clear
5:30 PM 73.4 °F 46.4 °F 38% 29.98 in - NW 9.2 mph - N/A   Clear
6:00 PM 73.4 °F 44.6 °F 36% 30.01 in - NW 9.2 mph - N/A   Clear
6:30 PM 73.4 °F 44.6 °F 36% 30.01 in - NNW 11.5 mph - N/A   Clear
7:00 PM 71.6 °F 42.8 °F 35% 30.01 in - NNW 10.4 mph - N/A   Clear
7:30 PM 71.6 °F 42.8 °F 35% 30.01 in - North 11.5 mph - N/A   Clear
8:00 PM 71 °F 46 °F 30% 30.03 in 6 mi North 9.2 mph - -  
8:00 PM 69.8 °F 46.4 °F 43% 30.04 in - NNW 12.7 mph - N/A   Clear
8:30 PM 69.8 °F 46.4 °F 43% 30.04 in - NNW 12.7 mph - N/A   Clear
9:00 PM 68.0 °F 46.4 °F 46% 30.06 in - North 12.7 mph - N/A   Clear
9:30 PM 66.2 °F 48.2 °F 52% 30.06 in - North 9.2 mph - N/A   Clear
10:00 PM 66.2 °F 46.4 °F 49% 30.06 in - North 6.9 mph - N/A   Clear
10:30 PM 66.2 °F 46.4 °F 49% 30.06 in - North 6.9 mph - N/A   Clear
11:00 PM 66.2 °F 48.2 °F 52% 30.06 in - North 3.5 mph - N/A   Clear
11:30 PM 64.4 °F 48.2 °F 56% 30.06 in - North 3.5 mph - N/A   Clear